Location: Chervonnoye
(48.6000°N, 34.4000°E)
Time: 19:19:50
(UTC+00:00)

RS-44 - Pass Details

Date: 05 December 2021
Orbit: 1175 x 1510 km, 82.5° (Epoch: 19 January)

Event Time Altitude Azimuth Distance (km) Brightness Sun altitude
Rises 16:39:09 0° 176° (S) 4,105 ? -27.4°
Reaches altitude 10° 16:41:51 10° 174° (S) 3,120 ? -27.8°
Enters shadow 16:47:51 58° 136° (SE) 1,358 ? -28.8°
Exits shadow 16:57:52 - 13° (NNE) 3,773 ? -30.5°
Sets 16:58:47 0° 12° (NNE) 4,109 ? -30.6°
